GPS BIIF-3 (PRN 24)

Last updated on Sat Jul 05 2025 00:03:13 GMT+0000 (Coordinated Universal Time)

1 38833U 12053A 25185.31294188 .00000068 00000+0 00000+0 0 9995 2 38833 53.5415 157.8467 0166950 60.9190 300.7233 2.00563273 92467
UTC large
Height (km)
Speed (km/s)
/
Latitude / Longitude
Inclination (degrees)
Orbital Period (minutes)
Azimuth
Elevation
Range (km)
Doppler Factor

Next 0 passes for location: London (51.5072 / 0.1276)

Sorry there are no passes over London.